DateTimeUTC,F1_A11,F1_S11,BsB_S11,BsG_S11,BsR_S11,BbsB_S11,BbsG_S11,BbsR_S11,BaB_A11,BaG_A11,BaR_A11,Tu_S11,T_S11,Uu_S11,U_S11,P_S11,T1_A11
2021-08-11T08:00:00Z,00040200,20000000,,,,,,,-000.23,-000.30,-000.15,18.2,24.8,12.1,08.1,0676.1,31.0
2021-08-11T08:01:00Z,00040200,20000000,,,,,,,0000.18,0000.16,-000.23,18.2,24.8,12.1,08.1,0676.1,31.0
2021-08-11T08:02:00Z,00040200,20000000,,,,,,,0000.10,0000.45,0000.36,18.2,24.8,11.9,07.9,0676.1,31.0
2021-08-11T08:03:00Z,00040200,60000000,,,,,,,0000.08,-000.49,-000.19,18.2,24.9,11.9,07.9,0676.1,31.0
2021-08-11T08:04:00Z,00040200,40000000,0001.27,0000.21,-000.13,0000.41,0000.10,-000.17,-000.35,-000.12,0000.18,18.3,24.7,12.0,08.1,0677.0,31.0
2021-08-11T08:05:00Z,00040200,00000000,0001.19,0000.47,0000.33,-000.12,0000.30,0000.41,-000.08,0000.16,-000.15,18.4,24.6,12.0,08.2,0677.1,31.0
2021-08-11T08:06:00Z,00040200,00000000,0000.74,0000.11,0000.37,-000.41,0000.36,-000.30,0000.15,-000.25,0000.10,18.4,24.6,12.0,08.2,0677.1,31.0
2021-08-11T08:07:00Z,00040200,00000000,-000.60,0000.37,0000.18,0000.07,-000.26,0000.08,0000.07,-000.48,-000.29,18.4,24.6,12.0,08.2,0677.1,31.0
2021-08-11T08:08:00Z,00040200,00000000,0001.00,0000.45,0000.24,-000.14,0000.07,0000.39,-000.43,0000.27,0000.10,18.4,24.6,12.0,08.2,0677.1,31.0
2021-08-11T08:09:00Z,00040200,00000000,0000.64,0000.42,-000.25,0000.12,0000.23,0000.11,-000.21,-000.23,-000.23,18.4,24.6,12.0,08.2,0677.1,31.0
2021-08-11T08:10:00Z,00040200,00000000,0000.83,0000.45,0000.25,-000.08,-000.02,0000.05,-000.00,0000.10,0000.26,18.4,24.6,12.0,08.2,0677.1,31.0
2021-08-11T08:11:00Z,00040200,00000000,0000.78,0000.61,0000.21,-000.11,0000.40,0000.13,0000.27,0000.07,0000.04,18.4,24.6,12.0,08.2,0677.1,31.0
2021-08-11T08:12:00Z,00040200,00000000,-000.23,0000.11,0000.09,-000.25,0000.08,0000.08,-000.11,0000.24,-000.27,18.4,24.6,12.0,08.2,0677.2,31.0
2021-08-11T08:13:00Z,00040200,00000000,0000.34,0000.48,0000.23,-000.21,0000.22,0000.11,-000.25,-000.15,0000.12,18.4,24.5,12.1,08.3,0677.2,31.0
2021-08-11T08:14:00Z,00040200,00000000,0000.56,0000.64,0000.57,-000.06,0000.19,0000.25,0000.28,0000.01,0000.47,18.4,24.5,12.0,08.2,0677.2,31.0
2021-08-11T08:15:00Z,00040200,00000000,0000.10,-000.13,0000.35,0000.37,-000.00,0000.17,0000.08,-000.13,-000.22,18.4,24.5,12.0,08.2,0677.2,31.0
2021-08-11T08:16:00Z,00040200,00000000,0000.84,0000.17,0000.24,-000.01,-000.19,0000.24,-000.17,-000.00,-000.25,18.4,24.5,12.0,08.2,0677.2,31.0
2021-08-11T08:17:00Z,00040200,00000000,0000.67,0000.44,0000.43,0000.21,-000.07,0000.31,-000.22,-000.24,-000.00,18.4,24.5,12.0,08.2,0677.2,31.0
2021-08-11T08:18:00Z,00040200,00000000,0000.57,0000.16,0000.49,0000.07,-000.04,-000.15,-000.06,-000.15,0000.03,18.4,24.5,11.9,08.2,0677.2,31.0
2021-08-11T08:19:00Z,00040200,00000000,0000.66,0000.30,0000.25,0000.26,0000.27,0000.15,-000.25,0000.07,-000.33,18.4,24.5,11.9,08.2,0677.3,31.0
2021-08-11T08:20:00Z,00040200,00000000,-000.19,0000.51,0000.76,-000.31,0000.05,0000.42,-000.02,-000.22,-000.02,18.4,24.5,11.8,08.1,0677.3,31.0
2021-08-11T08:21:00Z,00040200,00000000,0001.36,0000.14,0000.12,0000.48,0000.20,-000.13,0000.06,0000.17,0000.14,18.4,24.5,11.8,08.1,0677.3,31.0
2021-08-11T08:22:00Z,00040200,00000000,0000.96,0000.37,0000.35,0000.08,0000.02,0000.50,-000.08,-000.15,0000.12,18.4,24.5,11.8,08.1,0677.4,31.0
2021-08-11T08:23:00Z,00040200,00000000,0000.65,0000.40,0000.21,-000.32,0000.11,0000.16,0000.13,0000.23,-000.27,18.5,24.6,11.8,08.2,0677.4,31.0
2021-08-11T08:24:00Z,00040200,00000000,0000.42,0000.51,0000.38,0000.34,0000.27,0000.36,0000.12,0000.02,0000.30,18.6,24.6,11.9,08.2,0677.4,31.0
2021-08-11T08:25:00Z,00040200,00000000,0000.53,0000.35,0000.18,0000.39,0000.46,0000.00,-000.31,-000.39,0000.15,18.6,24.7,11.8,08.1,0677.4,31.0
2021-08-11T08:26:00Z,00040200,00000000,0000.51,0000.49,-000.11,0000.34,0000.09,-000.46,-000.13,0000.17,0000.10,18.6,24.7,11.7,08.1,0677.4,31.0
2021-08-11T08:27:00Z,00040200,00000000,0000.85,0000.29,0000.23,0000.04,0000.07,0000.08,0000.37,0000.10,-000.12,18.6,24.7,11.6,08.0,0677.5,31.0
2021-08-11T08:28:00Z,00040200,00000000,0000.76,0000.38,0000.16,0000.54,0000.08,-000.37,-000.56,-000.43,-000.37,18.6,24.7,11.7,08.1,0677.5,31.0
2021-08-11T08:29:00Z,00040200,00000000,0000.56,0000.52,0000.34,-000.55,0000.15,0000.09,0000.04,0000.33,0000.01,18.6,24.7,11.6,08.0,0677.5,31.0
2021-08-11T08:30:00Z,00040200,00000000,0000.77,0000.44,0000.32,0000.11,0000.39,0000.06,0000.42,0000.07,0000.21,18.6,24.7,11.7,08.1,0677.5,31.0
2021-08-11T08:31:00Z,00040200,00000000,0001.15,0000.46,0000.16,-000.42,0000.08,0000.07,-000.50,-000.27,-000.26,18.6,24.7,11.6,08.0,0677.5,31.0
2021-08-11T08:32:00Z,00040200,00000000,0000.14,0000.21,0000.11,-000.11,0000.26,0000.26,0000.21,0000.63,0000.57,18.6,24.7,11.7,08.1,0677.5,31.0
2021-08-11T08:33:00Z,00040200,00000000,0000.48,0000.10,0000.21,0000.09,0000.07,0000.29,0000.19,-000.16,0000.01,18.6,24.7,11.8,08.1,0677.5,31.0
2021-08-11T08:34:00Z,00040200,00000000,0000.36,0000.22,0000.55,-000.20,0000.08,0000.22,-000.16,-000.17,-000.15,18.6,24.7,11.8,08.1,0677.5,31.0
2021-08-11T08:35:00Z,00040200,00000000,0000.64,0000.03,0000.23,0000.13,0000.19,0000.05,0000.25,-000.04,0000.05,18.6,24.7,11.9,08.2,0677.5,31.0
2021-08-11T08:36:00Z,00040200,00000000,0000.76,0000.58,0000.30,0000.09,0000.17,0000.38,0000.24,0000.52,0000.20,18.6,24.7,11.9,08.2,0677.6,31.0
2021-08-11T08:37:00Z,00040200,00000000,-000.13,0000.29,0000.58,0000.20,0000.32,0000.14,0000.56,0000.30,0000.17,18.6,24.7,12.1,08.4,0677.8,31.0
2021-08-11T08:38:00Z,00040200,00000000,0000.44,-000.15,0000.23,0000.24,0000.23,0000.26,-000.17,-000.28,0000.01,18.6,24.7,12.1,08.3,0677.7,31.0
2021-08-11T08:39:00Z,00040200,00000000,0001.29,-000.11,-000.09,-000.09,0000.09,0000.01,-000.16,-000.04,0000.38,18.6,24.7,12.1,08.4,0677.8,31.0
2021-08-11T08:40:00Z,00040200,00000000,-000.45,0000.09,0000.35,0000.36,0000.04,0000.16,-000.11,-000.15,-000.32,18.6,24.7,12.2,08.4,0677.7,31.0
2021-08-11T08:41:00Z,00040200,00000000,0000.35,0000.02,0000.18,0000.69,-000.05,0000.40,0000.12,-000.05,0000.12,18.6,24.7,12.2,08.4,0677.7,31.0
2021-08-11T08:42:00Z,00040200,00000000,0000.35,0000.08,0000.04,0000.11,0000.14,0000.04,-000.16,0000.06,-000.33,18.6,24.6,12.3,08.5,0677.7,31.0
2021-08-11T08:43:00Z,00040200,00000000,0000.47,0000.12,0000.05,-000.18,0000.04,0000.04,0000.11,0000.39,0000.61,18.5,24.6,12.3,08.5,0677.7,31.0
2021-08-11T08:44:00Z,00040200,00000000,0000.39,-000.08,0000.11,-000.29,-000.12,0000.07,0000.50,0000.47,-000.02,18.5,24.6,12.3,08.5,0677.7,31.0
2021-08-11T08:45:00Z,00040200,00000000,0000.05,0000.17,0000.28,0000.20,0000.13,-000.11,-000.50,-000.49,0000.14,18.5,24.6,12.4,08.6,0677.7,31.0
2021-08-11T08:46:00Z,00040200,00000000,0000.26,0000.38,0000.40,0000.17,-000.14,0000.05,0000.43,0000.24,0000.17,18.5,24.6,12.3,08.5,0677.7,31.0
2021-08-11T08:47:00Z,00040200,00000000,0000.16,0000.01,0000.16,0000.44,0000.32,0000.24,0000.26,0000.12,-000.35,18.6,24.6,12.3,08.5,0677.7,31.0
2021-08-11T08:48:00Z,00040200,00000000,-000.51,0000.32,0000.46,-000.37,0000.23,0000.19,-000.26,-000.01,0000.24,18.6,24.6,12.3,08.5,0677.7,31.0
2021-08-11T08:49:00Z,00040200,00000000,0000.12,-000.16,0000.21,-000.19,0000.04,0000.01,-000.22,-000.37,-000.31,18.6,24.6,12.4,08.6,0677.7,31.0
2021-08-11T08:50:00Z,00040200,00000000,0000.23,0000.08,0000.32,-000.19,-000.13,0000.24,0000.24,0000.27,-000.01,18.6,24.6,12.2,08.4,0677.7,31.0
2021-08-11T08:51:00Z,00040200,00000000,0000.26,0000.23,0000.47,-000.41,0000.11,0000.42,-000.06,-000.28,0000.27,18.5,24.6,12.3,08.5,0677.7,30.9
2021-08-11T08:52:00Z,00040200,00000000,0000.72,0000.23,0000.46,-000.34,0000.36,0000.07,-000.41,0000.05,-000.24,18.5,24.6,12.4,08.6,0677.7,31.0
2021-08-11T08:53:00Z,00040200,00000000,0000.18,0000.28,0000.33,0000.06,-000.02,0000.26,0000.33,0000.08,0000.23,18.5,24.6,12.4,08.6,0677.7,31.0
2021-08-11T08:54:00Z,00040200,00000000,0000.14,-000.07,0000.10,0000.21,0000.04,0000.01,-000.23,-000.05,-000.21,18.6,24.6,12.5,08.7,0677.7,31.0
2021-08-11T08:55:00Z,00040200,00000000,-000.34,0000.16,0000.33,0000.36,0000.31,0000.10,0000.61,0000.27,0000.23,18.5,24.6,12.5,08.6,0677.7,31.0
2021-08-11T08:56:00Z,00040200,00000000,0000.30,0000.27,-000.11,-000.49,-000.00,-000.12,-000.47,-000.17,0000.07,18.6,24.6,12.5,08.7,0677.7,31.0
2021-08-11T08:57:00Z,00040200,40000000,,,,,,,-000.45,-000.43,0000.10,18.6,24.6,12.6,08.7,0677.6,31.0
2021-08-11T08:58:00Z,00040200,60000000,,,,,,,0000.59,0000.31,-000.37,18.3,24.8,12.4,08.3,0676.7,31.0
2021-08-11T08:59:00Z,00040200,20000000,,,,,,,-000.00,-000.05,0000.25,18.3,24.9,12.4,08.3,0676.7,31.0
